Location: *
(49.7115°N, 15.0136°E)
Time: 18:44:30
(UTC+00:00)

STARLINK-1054 - Pass Details

Date: 27 February 2020
Orbit: 549 x 550 km, 53.0° (Epoch: 05 April)

Event Time Altitude Azimuth Distance (km) Brightness Sun altitude
Rises 17:28:58 0° 219° (SW) 2,706 7.8 -9.0°
Reaches altitude 10° 17:31:17 10° 212° (SSW) 1,816 6.7 -9.4°
Maximum altitude 17:35:07 38° 143° (SE) 843 4.3 -10.0°
Enters shadow 17:38:14 15° 80° (E) 1,554 5.3 -10.5°
